Time,TemperatureF,DewpointF,PressureIn,WindDirection,WindDirectionDegrees,WindSpeedMPH,WindSpeedGustMPH,Humidity,HourlyPrecipIn,Conditions,Clouds,dailyrainin,SoftwareType,DateUTC
2013-01-15 00:02:00,26.0,-3.0,30.35,North,0,0.0,3.0,28,0.00,,,0.00,,2013-01-15 08:02:00,
2013-01-15 00:11:00,26.0,-3.0,30.35,North,0,0.0,3.0,28,0.00,,,0.00,,2013-01-15 08:11:00,
2013-01-15 00:22:00,25.0,-3.0,30.35,NNW,335,3.0,4.0,29,0.00,,,0.00,,2013-01-15 08:22:00,
2013-01-15 00:32:00,25.0,-3.0,30.34,NNW,335,3.0,4.0,29,0.00,,,0.00,,2013-01-15 08:32:00,
2013-01-15 00:42:00,25.0,-3.0,30.34,NNW,335,3.0,4.0,29,0.00,,,0.00,,2013-01-15 08:42:00,
2013-01-15 00:52:00,25.0,-2.0,30.34,NNW,335,2.0,4.0,30,0.00,,,0.00,,2013-01-15 08:52:00,
2013-01-15 01:02:00,25.0,-1.0,30.35,NNW,335,1.0,4.0,31,0.00,,,0.00,,2013-01-15 09:02:00,
2013-01-15 01:11:00,25.0,-1.0,30.35,NNW,335,1.0,4.0,31,0.00,,,0.00,,2013-01-15 09:11:00,
2013-01-15 01:22:00,25.0,-1.0,30.35,NNW,335,3.0,4.0,31,0.00,,,0.00,,2013-01-15 09:22:00,
2013-01-15 01:33:00,24.0,-2.0,30.35,NNW,335,2.0,4.0,32,0.00,,,0.00,,2013-01-15 09:33:00,
2013-01-15 01:42:00,24.0,-2.0,30.35,NNW,335,2.0,4.0,32,0.00,,,0.00,,2013-01-15 09:42:00,
2013-01-15 01:52:00,25.0,-1.0,30.36,NNW,335,2.0,5.0,32,0.00,,,0.00,,2013-01-15 09:52:00,
2013-01-15 02:02:00,25.0,-1.0,30.36,NNW,335,1.0,5.0,32,0.00,,,0.00,,2013-01-15 10:02:00,
2013-01-15 02:11:00,25.0,-1.0,30.36,NNW,335,1.0,5.0,32,0.00,,,0.00,,2013-01-15 10:11:00,
2013-01-15 02:22:00,25.0,-1.0,30.37,NNW,336,1.0,4.0,32,0.00,,,0.00,,2013-01-15 10:22:00,
2013-01-15 02:32:00,25.0,-1.0,30.37,NNW,336,3.0,4.0,32,0.00,,,0.00,,2013-01-15 10:32:00,
2013-01-15 02:42:00,25.0,-1.0,30.37,NNW,336,3.0,4.0,32,0.00,,,0.00,,2013-01-15 10:42:00,
2013-01-15 02:52:00,24.0,-1.0,30.37,NNW,336,1.0,4.0,33,0.00,,,0.00,,2013-01-15 10:52:00,
2013-01-15 03:02:00,24.0,0.0,30.38,NNW,335,1.0,3.0,34,0.00,,,0.00,,2013-01-15 11:02:00,
2013-01-15 03:11:00,24.0,0.0,30.37,NNW,332,1.0,4.0,34,0.00,,,0.00,,2013-01-15 11:11:00,
2013-01-15 03:22:00,24.0,0.0,30.37,NNW,332,1.0,4.0,34,0.00,,,0.00,,2013-01-15 11:22:00,
2013-01-15 03:32:00,24.0,-1.0,30.38,NNW,332,1.0,4.0,33,0.00,,,0.00,,2013-01-15 11:32:00,
2013-01-15 03:42:00,24.0,-1.0,30.38,NNW,332,1.0,4.0,33,0.00,,,0.00,,2013-01-15 11:42:00,
2013-01-15 03:52:00,23.0,-1.0,30.37,North,0,0.0,3.0,34,0.00,,,0.00,,2013-01-15 11:52:00,
2013-01-15 04:02:00,24.0,0.0,30.37,North,0,0.0,4.0,34,0.00,,,0.00,,2013-01-15 12:02:00,
2013-01-15 04:11:00,24.0,0.0,30.37,North,0,0.0,4.0,34,0.00,,,0.00,,2013-01-15 12:11:00,
2013-01-15 04:22:00,23.0,-1.0,30.37,NNW,333,1.0,3.0,34,0.00,,,0.00,,2013-01-15 12:22:00,
2013-01-15 04:32:00,23.0,-1.0,30.37,NNW,333,4.0,5.0,34,0.00,,,0.00,,2013-01-15 12:32:00,
2013-01-15 04:42:00,23.0,-1.0,30.37,NNW,333,4.0,5.0,34,0.00,,,0.00,,2013-01-15 12:42:00,
2013-01-15 04:52:00,23.0,-1.0,30.37,North,0,0.0,5.0,35,0.00,,,0.00,,2013-01-15 12:52:00,
2013-01-15 05:02:00,24.0,0.0,30.37,NNW,337,3.0,4.0,34,0.00,,,0.00,,2013-01-15 13:02:00,
2013-01-15 05:12:00,24.0,0.0,30.37,NNW,337,3.0,4.0,34,0.00,,,0.00,,2013-01-15 13:12:00,
2013-01-15 05:22:00,24.0,0.0,30.37,NNW,340,3.0,5.0,34,0.00,,,0.00,,2013-01-15 13:22:00,
2013-01-15 05:33:00,25.0,0.0,30.40,NNW,340,1.0,4.0,33,0.00,,,0.00,,2013-01-15 13:33:00,
2013-01-15 05:42:00,25.0,0.0,30.40,NNW,340,1.0,4.0,33,0.00,,,0.00,,2013-01-15 13:42:00,
2013-01-15 05:52:00,25.0,0.0,30.40,NNW,340,2.0,4.0,33,0.00,,,0.00,,2013-01-15 13:52:00,
2013-01-15 06:02:00,25.0,0.0,30.41,NNW,340,3.0,5.0,33,0.00,,,0.00,,2013-01-15 14:02:00,
2013-01-15 06:11:00,25.0,0.0,30.41,NNW,340,3.0,5.0,33,0.00,,,0.00,,2013-01-15 14:11:00,
2013-01-15 06:22:00,26.0,1.0,30.41,NNW,340,1.0,4.0,33,0.00,,,0.00,,2013-01-15 14:22:00,
2013-01-15 06:33:00,25.0,0.0,30.42,NNW,340,3.0,4.0,33,0.00,,,0.00,,2013-01-15 14:33:00,
2013-01-15 06:42:00,25.0,0.0,30.42,NNW,340,3.0,4.0,33,0.00,,,0.00,,2013-01-15 14:42:00,
2013-01-15 06:53:00,25.0,0.0,30.42,NNW,340,3.0,4.0,33,0.00,,,0.00,,2013-01-15 14:53:00,
2013-01-15 07:02:00,24.0,0.0,30.43,North,0,0.0,2.0,34,0.00,,,0.00,,2013-01-15 15:02:00,
2013-01-15 07:12:00,24.0,0.0,30.43,North,0,0.0,2.0,34,0.00,,,0.00,,2013-01-15 15:12:00,
2013-01-15 07:22:00,23.0,1.0,30.44,North,0,0.0,0.0,38,0.00,,,0.00,,2013-01-15 15:22:00,
2013-01-15 07:33:00,23.0,1.0,30.44,North,0,0.0,0.0,37,0.00,,,0.00,,2013-01-15 15:33:00,
2013-01-15 07:42:00,23.0,1.0,30.44,North,0,0.0,0.0,37,0.00,,,0.00,,2013-01-15 15:42:00,
2013-01-15 07:52:00,23.0,1.0,30.44,North,0,0.0,0.0,37,0.00,,,0.00,,2013-01-15 15:52:00,
2013-01-15 08:02:00,25.0,1.0,30.45,North,0,0.0,3.0,35,0.00,,,0.00,,2013-01-15 16:02:00,
2013-01-15 08:11:00,25.0,1.0,30.45,North,0,0.0,3.0,35,0.00,,,0.00,,2013-01-15 16:11:00,
2013-01-15 08:22:00,27.0,2.0,30.46,North,0,0.0,2.0,33,0.00,,,0.00,,2013-01-15 16:22:00,
2013-01-15 08:32:00,32.0,3.0,30.47,North,0,0.0,0.0,29,0.00,,,0.00,,2013-01-15 16:32:00,
2013-01-15 08:53:00,33.0,3.0,30.48,North,0,0.0,2.0,27,0.00,,,0.00,,2013-01-15 16:53:00,
2013-01-15 09:03:00,34.0,3.0,30.49,North,0,0.0,4.0,26,0.00,,,0.00,,2013-01-15 17:03:00,
2013-01-15 09:12:00,34.0,3.0,30.49,North,0,0.0,4.0,26,0.00,,,0.00,,2013-01-15 17:12:00,
2013-01-15 09:22:00,35.0,3.0,30.49,NE,55,1.0,4.0,25,0.00,,,0.00,,2013-01-15 17:22:00,
2013-01-15 09:33:00,37.0,4.0,30.48,North,0,0.0,3.0,24,0.00,,,0.00,,2013-01-15 17:33:00,
2013-01-15 09:42:00,37.0,4.0,30.48,North,0,0.0,3.0,24,0.00,,,0.00,,2013-01-15 17:42:00,
2013-01-15 09:53:00,38.0,4.0,30.50,ENE,66,1.0,4.0,23,0.00,,,0.00,,2013-01-15 17:53:00,
2013-01-15 10:02:00,39.0,3.0,30.50,ESE,115,3.0,6.0,22,0.00,,,0.00,,2013-01-15 18:02:00,
2013-01-15 10:12:00,39.0,3.0,30.50,ESE,115,3.0,6.0,22,0.00,,,0.00,,2013-01-15 18:12:00,
2013-01-15 10:22:00,39.0,2.0,30.50,ESE,118,2.0,6.0,21,0.00,,,0.00,,2013-01-15 18:22:00,
2013-01-15 10:33:00,40.0,3.0,30.48,North,0,0.0,3.0,21,0.00,,,0.00,,2013-01-15 18:33:00,
2013-01-15 10:42:00,40.0,3.0,30.48,North,0,0.0,3.0,21,0.00,,,0.00,,2013-01-15 18:42:00,
2013-01-15 10:52:00,40.0,3.0,30.47,SE,134,1.0,3.0,21,0.00,,,0.00,,2013-01-15 18:52:00,
2013-01-15 11:03:00,41.0,4.0,30.47,SSE,167,1.0,5.0,21,0.00,,,0.00,,2013-01-15 19:03:00,
2013-01-15 11:12:00,41.0,4.0,30.47,SSE,167,1.0,5.0,21,0.00,,,0.00,,2013-01-15 19:12:00,
2013-01-15 11:22:00,41.0,4.0,30.47,South,186,2.0,7.0,21,0.00,,,0.00,,2013-01-15 19:22:00,
2013-01-15 11:33:00,42.0,5.0,30.45,SE,137,3.0,8.0,21,0.00,,,0.00,,2013-01-15 19:33:00,
2013-01-15 11:42:00,42.0,5.0,30.45,SE,137,3.0,8.0,21,0.00,,,0.00,,2013-01-15 19:42:00,
2013-01-15 11:52:00,41.0,5.0,30.44,SSW,196,1.0,8.0,22,0.00,,,0.00,,2013-01-15 19:52:00,
2013-01-15 12:02:00,42.0,6.0,30.43,SSE,164,3.0,9.0,22,0.00,,,0.00,,2013-01-15 20:02:00,
2013-01-15 12:12:00,42.0,6.0,30.43,SSE,164,3.0,9.0,22,0.00,,,0.00,,2013-01-15 20:12:00,
2013-01-15 12:22:00,42.0,6.0,30.42,SE,143,4.0,9.0,22,0.00,,,0.00,,2013-01-15 20:22:00,
2013-01-15 12:33:00,43.0,6.0,30.42,North,0,0.0,9.0,21,0.00,,,0.00,,2013-01-15 20:33:00,
2013-01-15 12:42:00,43.0,6.0,30.42,North,0,0.0,9.0,21,0.00,,,0.00,,2013-01-15 20:42:00,
2013-01-15 12:52:00,44.0,8.0,30.42,ESE,122,2.0,5.0,22,0.00,,,0.00,,2013-01-15 20:52:00,
2013-01-15 13:02:00,45.0,8.0,30.41,SE,139,2.0,6.0,22,0.00,,,0.00,,2013-01-15 21:02:00,
2013-01-15 13:12:00,45.0,8.0,30.41,SE,139,2.0,6.0,22,0.00,,,0.00,,2013-01-15 21:12:00,
2013-01-15 13:22:00,44.0,10.0,30.41,ENE,71,3.0,6.0,24,0.00,,,0.00,,2013-01-15 21:22:00,
2013-01-15 13:33:00,45.0,9.0,30.40,East,91,2.0,2.0,23,0.00,,,0.00,,2013-01-15 21:33:00,
2013-01-15 13:42:00,45.0,9.0,30.40,East,91,2.0,2.0,23,0.00,,,0.00,,2013-01-15 21:42:00,
2013-01-15 13:52:00,45.0,10.0,30.40,ENE,69,2.0,5.0,24,0.00,,,0.00,,2013-01-15 21:52:00,
2013-01-15 14:02:00,45.0,9.0,30.39,East,100,3.0,9.0,23,0.00,,,0.00,,2013-01-15 22:02:00,
2013-01-15 14:11:00,45.0,9.0,30.39,East,100,3.0,9.0,23,0.00,,,0.00,,2013-01-15 22:11:00,
2013-01-15 14:22:00,46.0,10.0,30.39,East,83,4.0,10.0,23,0.00,,,0.00,,2013-01-15 22:22:00,
2013-01-15 14:32:00,46.0,10.0,30.40,East,90,3.0,7.0,23,0.00,,,0.00,,2013-01-15 22:32:00,
2013-01-15 14:42:00,46.0,10.0,30.40,East,90,3.0,7.0,23,0.00,,,0.00,,2013-01-15 22:42:00,
2013-01-15 14:52:00,46.0,10.0,30.40,East,99,5.0,10.0,23,0.00,,,0.00,,2013-01-15 22:52:00,
2013-01-15 15:02:00,46.0,10.0,30.40,ESE,102,3.0,10.0,23,0.00,,,0.00,,2013-01-15 23:02:00,
2013-01-15 15:12:00,46.0,10.0,30.40,ESE,102,3.0,10.0,23,0.00,,,0.00,,2013-01-15 23:12:00,
2013-01-15 15:22:00,46.0,9.0,30.40,East,90,5.0,10.0,22,0.00,,,0.00,,2013-01-15 23:22:00,
2013-01-15 15:32:00,46.0,9.0,30.40,ENE,57,1.0,7.0,22,0.00,,,0.00,,2013-01-15 23:32:00,
2013-01-15 15:42:00,46.0,9.0,30.40,ENE,57,1.0,7.0,22,0.00,,,0.00,,2013-01-15 23:42:00,
2013-01-15 15:52:00,46.0,9.0,30.40,ENE,57,1.0,7.0,22,0.00,,,0.00,,2013-01-15 23:52:00,
2013-01-15 16:02:00,46.0,8.0,30.42,North,0,0.0,5.0,21,0.00,,,0.00,,2013-01-16 00:02:00,
2013-01-15 16:12:00,46.0,8.0,30.42,North,0,0.0,5.0,21,0.00,,,0.00,,2013-01-16 00:12:00,
2013-01-15 16:22:00,46.0,9.0,30.42,East,85,2.0,5.0,22,0.00,,,0.00,,2013-01-16 00:22:00,
2013-01-15 16:32:00,46.0,9.0,30.42,East,84,1.0,5.0,22,0.00,,,0.00,,2013-01-16 00:32:00,
2013-01-15 16:42:00,46.0,9.0,30.42,East,84,1.0,5.0,22,0.00,,,0.00,,2013-01-16 00:42:00,
2013-01-15 16:52:00,46.0,9.0,30.42,North,0,0.0,4.0,22,0.00,,,0.00,,2013-01-16 00:52:00,
2013-01-15 17:02:00,46.0,10.0,30.40,North,0,0.0,3.0,23,0.00,,,0.00,,2013-01-16 01:02:00,
2013-01-15 17:11:00,46.0,10.0,30.40,North,0,0.0,3.0,23,0.00,,,0.00,,2013-01-16 01:11:00,
2013-01-15 17:22:00,45.0,9.0,30.41,North,0,0.0,4.0,23,0.00,,,0.00,,2013-01-16 01:22:00,
2013-01-15 17:32:00,43.0,9.0,30.42,North,0,0.0,1.0,24,0.00,,,0.00,,2013-01-16 01:32:00,
2013-01-15 17:42:00,43.0,9.0,30.42,North,0,0.0,1.0,24,0.00,,,0.00,,2013-01-16 01:42:00,
2013-01-15 17:52:00,41.0,7.0,30.42,North,0,0.0,2.0,24,0.00,,,0.00,,2013-01-16 01:52:00,
2013-01-15 18:02:00,37.0,5.0,30.42,East,84,1.0,3.0,26,0.00,,,0.00,,2013-01-16 02:02:00,
2013-01-15 18:11:00,37.0,5.0,30.42,East,84,1.0,3.0,26,0.00,,,0.00,,2013-01-16 02:11:00,
2013-01-15 18:22:00,36.0,6.0,30.42,North,0,0.0,3.0,28,0.00,,,0.00,,2013-01-16 02:22:00,
2013-01-15 18:32:00,35.0,7.0,30.43,North,0,0.0,3.0,30,0.00,,,0.00,,2013-01-16 02:32:00,
2013-01-15 18:42:00,35.0,7.0,30.43,North,0,0.0,3.0,30,0.00,,,0.00,,2013-01-16 02:42:00,
2013-01-15 18:52:00,35.0,7.0,30.43,North,0,0.0,2.0,31,0.00,,,0.00,,2013-01-16 02:52:00,
2013-01-15 19:02:00,34.0,7.0,30.44,North,0,0.0,3.0,31,0.00,,,0.00,,2013-01-16 03:02:00,
2013-01-15 19:11:00,34.0,7.0,30.44,North,0,0.0,2.0,31,0.00,,,0.00,,2013-01-16 03:11:00,
2013-01-15 19:22:00,34.0,7.0,30.44,North,0,0.0,2.0,31,0.00,,,0.00,,2013-01-16 03:22:00,
2013-01-15 19:32:00,34.0,7.0,30.44,East,84,2.0,3.0,32,0.00,,,0.00,,2013-01-16 03:32:00,
2013-01-15 19:42:00,34.0,7.0,30.44,East,84,2.0,3.0,32,0.00,,,0.00,,2013-01-16 03:42:00,
2013-01-15 19:52:00,34.0,8.0,30.43,East,84,1.0,3.0,33,0.00,,,0.00,,2013-01-16 03:52:00,
2013-01-15 20:02:00,34.0,9.0,30.44,North,0,0.0,2.0,34,0.00,,,0.00,,2013-01-16 04:02:00,
2013-01-15 20:11:00,34.0,9.0,30.44,North,0,0.0,2.0,34,0.00,,,0.00,,2013-01-16 04:11:00,
2013-01-15 20:22:00,34.0,9.0,30.44,East,84,2.0,3.0,34,0.00,,,0.00,,2013-01-16 04:22:00,
2013-01-15 20:32:00,33.0,8.0,30.44,East,84,1.0,3.0,35,0.00,,,0.00,,2013-01-16 04:32:00,
2013-01-15 20:42:00,33.0,8.0,30.44,East,84,1.0,3.0,35,0.00,,,0.00,,2013-01-16 04:42:00,
2013-01-15 20:52:00,33.0,9.0,30.44,East,84,1.0,3.0,36,0.00,,,0.00,,2013-01-16 04:52:00,
2013-01-15 21:03:00,34.0,11.0,30.45,North,0,0.0,3.0,37,0.00,,,0.00,,2013-01-16 05:03:00,
2013-01-15 21:12:00,34.0,11.0,30.45,North,0,0.0,3.0,37,0.00,,,0.00,,2013-01-16 05:12:00,
2013-01-15 21:22:00,34.0,11.0,30.45,North,0,0.0,3.0,38,0.00,,,0.00,,2013-01-16 05:22:00,
2013-01-15 21:32:00,34.0,11.0,30.44,NW,320,1.0,3.0,38,0.00,,,0.00,,2013-01-16 05:32:00,
2013-01-15 21:42:00,34.0,11.0,30.44,NW,320,1.0,3.0,38,0.00,,,0.00,,2013-01-16 05:42:00,
2013-01-15 21:52:00,34.0,11.0,30.45,North,0,0.0,4.0,38,0.00,,,0.00,,2013-01-16 05:52:00,
2013-01-15 22:02:00,34.0,11.0,30.45,North,0,0.0,4.0,38,0.00,,,0.00,,2013-01-16 06:02:00,
2013-01-15 22:11:00,34.0,11.0,30.45,North,0,0.0,4.0,38,0.00,,,0.00,,2013-01-16 06:11:00,
2013-01-15 22:22:00,34.0,11.0,30.45,NW,325,2.0,4.0,38,0.00,,,0.00,,2013-01-16 06:22:00,
2013-01-15 22:32:00,34.0,12.0,30.45,NNW,327,1.0,3.0,39,0.00,,,0.00,,2013-01-16 06:32:00,
2013-01-15 22:42:00,34.0,12.0,30.45,NNW,327,1.0,3.0,39,0.00,,,0.00,,2013-01-16 06:42:00,
2013-01-15 22:52:00,34.0,12.0,30.45,NNW,329,2.0,4.0,39,0.00,,,0.00,,2013-01-16 06:52:00,
2013-01-15 23:02:00,34.0,12.0,30.44,North,0,0.0,4.0,39,0.00,,,0.00,,2013-01-16 07:02:00,
2013-01-15 23:11:00,34.0,12.0,30.44,North,0,0.0,4.0,39,0.00,,,0.00,,2013-01-16 07:11:00,
2013-01-15 23:22:00,34.0,12.0,30.44,North,0,0.0,5.0,39,0.00,,,0.00,,2013-01-16 07:22:00,
2013-01-15 23:32:00,34.0,12.0,30.45,NNW,341,1.0,5.0,39,0.00,,,0.00,,2013-01-16 07:32:00,
2013-01-15 23:42:00,34.0,12.0,30.45,NNW,341,1.0,5.0,39,0.00,,,0.00,,2013-01-16 07:42:00,
2013-01-15 23:52:00,34.0,12.0,30.45,NNW,342,3.0,5.0,39,0.00,,,0.00,,2013-01-16 07:52:00,